Regional Weather Roundup
Issued by NWS

Home | Current Version | Previous Version | Text Only | Print | Product List | Glossary On
Versions: 1 2 3 4 5 6 7 8 9 10 11 12 13 14 15 16 17 18 19 20 21 22 23 24 25 26 27 28 29 30 31 32 33 34 35 36 37 38 39 40 41 42 43 44 45 46 47 48 49 50
000
ASUS45 KBOI 241110
RWRID
WEATHER ROUNDUP FOR IDAHO
NATIONAL WEATHER SERVICE BOISE ID
500 AM MDT THU JUL 24 2014

NOTE: "FAIR" INDICATES FEW OR NO CLOUDS BELOW 12000 FEET
WITH NO SIGNIFICANT WEATHER AND/OR OBSTRUCTIONS TO VISIBILITY

IDZ012-014-241200-
SOUTHWEST IDAHO


CITY           SKY/WX    TMP DP  RH WIND       PRES   REMARKS
BOISE          CLEAR     61  47  59 W10       30.08R
CALDWELL       CLEAR     59  39  47 NW10      30.11R
MOUNTAIN HOME  CLEAR     61  48  62 W15       30.07R
$$

IDZ016-017-241200-
SOUTHCENTRAL IDAHO


CITY           SKY/WX    TMP DP  RH WIND       PRES   REMARKS
BURLEY         CLEAR     66  36  32 W15       30.05R
JEROME         CLEAR     62  46  55 SW16      30.06R
TWIN FALLS     CLEAR     66  41  40 SW20G29   30.07R
$$

IDZ019>023-241200-
SOUTHEAST IDAHO


CITY           SKY/WX    TMP DP  RH WIND       PRES   REMARKS
IDAHO FALLS    MOCLDY    65  42  43 SW9       30.03R
POCATELLO      CLEAR     69  35  28 SW13      30.04R
REXBURG        MOCLDY    67  40  37 S10       30.02R
$$

IDZ006-010-011-018-031-032-241200-
CENTRAL IDAHO MOUNTAINS


CITY           SKY/WX    TMP DP  RH WIND       PRES   REMARKS
MCCALL         PTCLDY    49  43  80 CALM      30.11R
HAILEY         CLEAR     54  39  58 NW7       30.10R
STANLEY          N/A     44  34  67 S3        30.17R
SALMON         CLEAR     52  45  76 SW6       29.96R
CHALLIS        CLEAR     61  34  36 W6        30.03R
$$

IDZ002-004-006-007-026-241200-
NORTHERN IDAHO


CITY           SKY/WX    TMP DP  RH WIND       PRES   REMARKS
LEWISTON       MOCLDY    60  43  53 W7        30.10R
LOWELL           N/A     64  51  62 CALM      30.07S
COEUR D`ALENE  CLOUDY    54  46  76 CALM      30.06R
MULLAN PASS    CLOUDY    42  40  92 CALM      30.12R
$$



USA.gov is the U.S. government's official web portal to all federal, state and local government web resources and services.